Tracking 35274 objects as of 12-Sep-2026
HD Live streaming from Space Station
objects crossing your sky now

OBJECT G

Track OBJECT G now!
10-day predictions


NORAD ID: 62615
Int'l Code: 2025-009G
Launch date: January 14, 2025
Source: United States (US)
Launch site: AIR FORCE WESTERN TEST RANGE (AFWTR)
Your satellite tracking list
Your tracking list is empty




NASA's NSSDC Master Catalog

Two Line Element Set (TLE):
1 62615U 25009G   26255.14708222  .00004424  00000-0  17108-3 0  9996
2 62615  97.3893 334.1815 0006711  34.9581 325.2098 15.26724022 92068
Source of the keplerian elements: AFSPC